Date String (YYYY-MM-DD hh:mm:ss) UTC,Instrument flags,absolute air pressure of the measurement (hPa),sample flow rate (lpm),inlet stack bypass flow (lpm),air temperature of the measurement (°C),ambient temperature measured by the external sensor (°C),aerosol sample conditioner tube jacket temperature (°C),OPC LED temperature (°C),internal box temperature (°C),relative humidity of the measurement (%),span deviation,mass concentration of particles derived from Lorenz-Mie calculation of OPC scattering (μg/m³),mass concentration of particles derived from Lorenz-Mie calculation of OPC scattering (μg/m³),mass concentration of particles derived from Lorenz-Mie calculation of OPC scattering (μg/m³)
DateTimeUTC,F1_M11,P_M11,Q1_M11,Q2_M11,T1_M11,T2_M11,T3_M11,T4_M11,T5_M11,U1_M11,ZSPAN_M11,X0_M11,X2_M11,X1_M11
2023-06-13 16:00:00,SystemResetWarning,0830.4,5.00,000.00,029.0,027.4,000.0,037.6,030.5,29.8,0001.8,0013.48,0009.50,0008.86
2023-06-13 16:01:00,SystemResetWarning,0830.4,4.99,000.00,029.0,027.4,000.0,037.6,030.5,30.1,0001.8,0013.80,0009.50,0008.86
2023-06-13 16:02:00,SystemResetWarning,0830.4,5.00,000.00,029.0,027.4,000.0,037.6,030.5,30.2,0001.9,0014.33,0009.56,0008.87
2023-06-13 16:03:00,SystemResetWarning,0830.4,5.00,000.00,029.0,027.4,000.0,037.6,030.5,30.0,0002.1,0014.41,0009.57,0008.88
2023-06-13 16:04:00,SystemResetWarning,0830.4,5.00,000.00,029.0,027.4,000.0,037.6,030.5,30.1,0002.3,0014.53,0009.60,0008.91
2023-06-13 16:05:00,SystemResetWarning,0830.4,5.00,000.00,029.1,027.4,000.0,037.6,030.5,30.1,0002.4,0014.44,0009.60,0008.91
2023-06-13 16:06:00,SystemResetWarning,0830.4,5.01,000.00,029.1,027.4,000.0,037.6,030.5,29.9,0002.5,0014.40,0009.59,0008.91
2023-06-13 16:07:00,SystemResetWarning,0830.3,5.00,000.00,029.1,027.4,000.0,037.6,030.5,30.1,0002.5,0014.40,0009.59,0008.91
2023-06-13 16:08:00,SystemResetWarning,0830.3,4.99,000.00,029.1,027.4,000.0,037.6,030.5,30.3,0002.6,0014.36,0009.58,0008.90
2023-06-13 16:09:00,SystemResetWarning,0830.3,5.01,000.00,029.1,027.4,000.0,037.6,030.5,30.2,0002.4,0014.35,0009.60,0008.93
2023-06-13 16:10:00,SystemResetWarning,0830.3,5.00,000.00,029.1,027.4,000.0,037.6,030.5,30.2,0002.4,0014.42,0009.67,0008.99
2023-06-13 16:11:00,SystemResetWarning,0830.3,4.99,000.00,029.0,027.4,000.0,037.6,030.5,30.2,0002.4,0014.75,0009.73,0009.03
2023-06-13 16:12:00,SystemResetWarning,0830.3,5.00,000.00,029.0,027.4,000.0,037.6,030.5,30.2,0002.3,0014.85,0009.77,0009.08
2023-06-13 16:13:00,SystemResetWarning,0830.3,5.00,000.00,029.0,027.4,000.0,037.6,030.5,30.0,0002.3,0014.35,0009.75,0009.12
2023-06-13 16:14:00,SystemResetWarning,0830.3,5.00,000.00,029.0,027.4,000.0,037.6,030.5,29.8,0002.2,0014.61,0009.74,0009.13
2023-06-13 16:15:00,SystemResetWarning,0830.3,5.00,000.00,029.0,027.4,000.0,037.6,030.5,29.8,0002.2,0014.61,0009.71,0009.14
2023-06-13 16:16:00,SystemResetWarning,0830.3,5.00,000.00,029.0,027.4,000.0,037.6,030.5,30.0,0001.7,0014.60,0009.71,0009.16
2023-06-13 16:17:00,SystemResetWarning,0830.2,4.99,000.00,029.0,027.4,000.0,037.6,030.5,29.9,0001.6,0014.64,0009.72,0009.16
2023-06-13 16:18:00,SystemResetWarning,0830.3,5.01,000.00,029.0,027.4,000.0,037.6,030.5,29.8,0001.4,0014.58,0009.69,0009.17
2023-06-13 16:19:00,SystemResetWarning,0830.3,5.01,000.00,029.0,027.4,000.0,037.6,030.5,29.8,0001.6,0014.66,0009.72,0009.18
2023-06-13 16:20:00,SystemResetWarning,0830.3,5.00,000.00,029.0,027.4,000.0,037.6,030.5,30.1,0001.6,0014.73,0009.73,0009.16
2023-06-13 16:21:00,SystemResetWarning,0830.3,5.00,000.00,029.0,027.4,000.0,037.6,030.5,30.1,0001.1,0014.81,0009.74,0009.15
2023-06-13 16:22:00,SystemResetWarning,0830.3,5.00,000.00,029.0,027.4,000.0,037.6,030.5,29.9,0000.9,0014.84,0009.74,0009.15
2023-06-13 16:23:00,SystemResetWarning,0830.3,4.99,000.00,029.0,027.4,000.0,037.6,030.5,30.1,0000.6,0014.41,0009.70,0009.12
2023-06-13 16:24:00,SystemResetWarning,0830.3,4.99,000.00,029.0,027.4,000.0,037.6,030.5,30.1,0000.2,0014.51,0009.72,0009.08
2023-06-13 16:25:00,SystemResetWarning,0830.3,5.02,000.00,029.0,027.4,000.0,037.6,030.5,30.4,0000.2,0014.19,0009.74,0009.09
2023-06-13 16:26:00,SystemResetWarning,0830.4,5.02,000.00,029.0,027.4,000.0,037.6,030.5,30.4,0000.1,0014.06,0009.77,0009.12
2023-06-13 16:27:00,SystemResetWarning,0830.3,5.00,000.00,029.0,027.4,000.0,037.6,030.5,30.5,0000.1,0014.36,0009.79,0009.15
2023-06-13 16:28:00,SystemResetWarning,0830.3,4.99,000.00,029.0,027.4,000.0,037.6,030.5,30.2,-000.1,0014.41,0009.79,0009.17
2023-06-13 16:29:00,SystemResetWarning,0830.3,4.99,000.00,029.0,027.4,000.0,037.6,030.5,29.8,0000.1,0014.40,0009.79,0009.19
2023-06-13 16:30:00,SystemResetWarning,0830.3,5.00,000.00,029.0,027.4,000.0,037.6,030.5,29.5,-000.0,0014.36,0009.76,0009.19
2023-06-13 16:31:00,SystemResetWarning,0830.3,5.00,000.00,029.0,027.4,000.0,037.6,030.5,29.7,0000.0,0014.36,0009.75,0009.19
2023-06-13 16:32:00,SystemResetWarning,0830.4,5.01,000.00,029.0,027.4,000.0,037.6,030.5,29.9,0000.3,0014.11,0009.66,0009.14
2023-06-13 16:33:00,SystemResetWarning,0830.3,5.00,000.00,029.0,027.4,000.0,037.6,030.6,29.7,0000.6,0013.54,0009.58,0009.07
2023-06-13 16:34:00,SystemResetWarning,0830.3,5.00,000.00,029.0,027.4,000.0,037.6,030.5,29.6,0000.8,0013.26,0009.50,0008.99
2023-06-13 16:35:00,SystemResetWarning,0830.3,5.01,000.00,029.1,027.4,000.0,037.6,030.5,29.9,0001.1,0013.50,0009.39,0008.92
2023-06-13 16:36:00,SystemResetWarning,0830.3,5.01,000.00,029.1,027.4,000.0,037.6,030.6,29.5,0000.9,0013.63,0009.30,0008.81
2023-06-13 16:37:00,SystemResetWarning,0830.3,5.00,000.00,029.1,027.5,000.0,037.6,030.6,29.3,0000.9,0013.43,0009.11,0008.62
2023-06-13 16:38:00,SystemResetWarning,0830.3,5.01,000.00,029.1,027.5,000.0,037.6,030.6,29.4,0000.7,0012.92,0008.93,0008.44
2023-06-13 16:39:00,SystemResetWarning,0830.4,5.01,000.00,029.0,027.4,000.0,037.6,030.5,29.2,0001.0,0012.70,0008.79,0008.29
2023-06-13 16:40:00,SystemResetWarning,0830.4,5.00,000.00,029.0,027.4,000.0,037.6,030.5,29.0,0000.9,0012.61,0008.67,0008.15
2023-06-13 16:41:00,SystemResetWarning,0830.4,5.00,000.00,029.0,027.4,000.0,037.6,030.4,28.8,0000.8,0013.17,0008.51,0008.00
2023-06-13 16:42:00,SystemResetWarning,0830.4,4.99,000.00,029.0,027.4,000.0,037.6,030.4,28.6,0000.7,0013.03,0008.30,0007.82
2023-06-13 16:43:00,SystemResetWarning,0830.4,5.00,000.00,029.0,027.4,000.0,037.6,030.5,28.8,0000.9,0012.88,0008.13,0007.67
2023-06-13 16:44:00,SystemResetWarning,0830.5,4.99,000.00,029.0,027.4,000.0,037.6,030.5,28.9,0001.0,0012.75,0008.02,0007.56
2023-06-13 16:45:00,SystemResetWarning,0830.4,5.01,000.00,029.0,027.4,000.0,037.6,030.5,28.6,0000.9,0013.13,0007.88,0007.41
2023-06-13 16:46:00,SystemResetWarning,0830.4,5.00,000.00,029.0,027.4,000.0,037.6,030.5,27.8,0000.8,0013.02,0007.70,0007.23
2023-06-13 16:47:00,SystemResetWarning,0830.4,5.01,000.00,029.0,027.4,000.0,037.6,030.5,27.8,0001.1,0012.60,0007.54,0007.09
2023-06-13 16:48:00,SystemResetWarning,0830.5,5.00,000.00,029.0,027.4,000.0,037.6,030.5,28.4,0001.1,0013.06,0007.46,0006.97
2023-06-13 16:49:00,SystemResetWarning,0830.5,5.01,000.00,029.0,027.4,000.0,037.6,030.5,28.8,0001.2,0013.15,0007.38,0006.91
2023-06-13 16:50:00,SystemResetWarning,0830.6,5.00,000.00,029.0,027.4,000.0,037.6,030.5,28.6,0001.1,0013.23,0007.32,0006.84
2023-06-13 16:51:00,SystemResetWarning,0830.5,4.99,000.00,029.0,027.4,000.0,037.6,030.5,28.5,0001.0,0013.16,0007.27,0006.78
2023-06-13 16:52:00,SystemResetWarning,0830.4,4.99,000.00,029.0,027.5,000.0,037.6,030.5,28.7,0001.1,0012.48,0007.20,0006.71
2023-06-13 16:53:00,SystemResetWarning,0830.8,5.01,000.00,029.0,027.5,000.0,037.6,030.6,28.6,0001.4,0012.16,0007.16,0006.67
2023-06-13 16:54:00,SystemResetWarning,0830.7,5.01,000.00,029.0,027.5,000.0,037.6,030.5,27.6,0001.2,0012.16,0007.10,0006.58
2023-06-13 16:55:00,SystemResetWarning,0830.5,5.00,000.00,029.0,027.5,000.0,037.6,030.5,27.3,0001.3,0011.98,0006.99,0006.47
2023-06-13 16:56:00,SystemResetWarning,0830.5,4.99,000.00,029.0,027.5,000.0,037.6,030.5,27.7,0001.3,0011.59,0006.89,0006.39
2023-06-13 16:57:00,SystemResetWarning,0830.7,5.01,000.00,029.0,027.5,000.0,037.6,030.5,28.1,0001.7,0010.83,0006.85,0006.38
2023-06-13 16:58:00,SystemResetWarning,0830.5,5.00,000.00,029.0,027.4,000.0,037.6,030.5,28.4,0001.7,0010.90,0006.86,0006.40
2023-06-13 16:59:00,SystemResetWarning,0830.5,4.99,000.00,029.0,027.4,000.0,037.6,030.5,28.5,0001.9,0010.40,0006.89,0006.46
